STARLINK-35940, 66617

Orbit data source: Space-Track

STARLINK-35940, 66617 is a payload satellite owned by SpaceX/Seattle (US) in LEO that was launched on Sun, 23 Nov 2025 UTC via an FALCON 9 launch vehicle from the Air Force Western Test Range (AFWTR). Payload-class satellites include a variety of spacecraft equipped with specific instruments for various scientific and technological missions. These include communications satellites like Starlink; space stations such as the ISS; scientific satellites like the Hubble; Earth observation satellites from companies like Planet Labs, Umbra, and HawkEye 360; GPS; miniature CubeSats for education and research; and military/defense satellites.

Loading next visibility...
Identifier
66617, 2025-271A
Orbit
LEO
Country
Flag of USUS
Related business
Manufacturer
SpaceX/Seattle
Mission
Operational Commercial Communications
Bus & Motor
STARLINK V2MO, Unknown motor
Mass
575 kg wet, ~530 kg dry
Launch date (UTC)
2025-11-23 (5 months ago)
Launch vehicle
FALCON 9
Launch site
Air Force Western Test Range (AFWTR)
Object type
Payload
Rocket body
Debris
Shape & HBR
Box + 2 Pan, 17.7 m
Radar Cross Section
36.964 m²

Expand to show TLE details & history
Last TLE update: 7 hours ago

TLE from 7 hours ago
0 STARLINK-35940
1 66617U 25271A   26128.24905017  .00024168  00000-0  82487-3 0  9993
2 66617  53.1582 223.4209 0001538 100.0771 260.0403 15.30223573 26685
Epoch: 2026-05-08T05:58Z
TLE epoch observation values (Epoch: 2026-05-08T05:58:37.934Z)
Latitude
-0.00006°
Longitude
-92.32075°
Altitude
476.227 km
Speed
7.629 km/s
True Right ascension
14h 53m 41s
True Declination
0° 00' 00"
Sunlit
Object was in full shadow at epoch
Visualization orbit readout
Latitude
Unknown
Longitude
Unknown
Altitude
Unknown
Speed
Unknown
Apparent Right ascension
Unknown
Apparent Declination
Unknown
Sunlit
N/A
Visualization observer readout
Local Sidereal Time
20:52:57
Azimuth
Unknown
Elevation
Unknown
Doppler factor
Unknown
Orbital elements
Apogee altitude
476.455 km
Perigee altitude
474.347 km
Semi-major axis
6,853.538 km
Eccentricity
0.00015
Inclination
53.1582°
RAAN
223.4209°
Arg. of periapsis
100.0771°
True anomaly
260.02294°
Mean anomaly
260.0403°
Eccentric anomaly
260.03162°
Mean motion
3.82535 °/min
Orbital period
94.11 mins
BSTAR
0.00082487
Loading maneuver chart data...
Computing Atmospheric mass density...
Loading historical data...
Loading historical data...
Loading historical data...
Loading historical data...
Loading historical data...
Loading historical data...
Loading historical data...

Documentation

Showing up to 5 results
|